Flag for Colombia Weather past 2 weeks in Buenaventura, Colombia

Now
79 °F

Passing clouds.


Feels Like: 81 °F
Forecast: 79 / 89 °F
Wind: 12 mph from Northwest

Location: Cali / Alfonso Bonillaaragon

Current Time: Jul 3, 2015 at 7:24:26 PM

Latest Report: Jul 3, 2015 at 7:00 PM


Visibility: N/A

Pressure: 29.81 "Hg

Humidity: 70%

Dew point: 68 °F

Location of BuenaventuraLocation

Historic Weather in Buenaventura — Graph

°F

Buenaventura temperature yesterday

Maximum temperature yesterday: 91 °F (at 1:00 PM)
Minimum temperature yesterday: 66 °F (at 5:30 AM)
Average temperature yesterday: 77 °F

Past Weeks' High & Low Weather Summary

 TemperatureHumidityPressure
High95 °F (Jun 24, 3:00 PM)100% (Jun 22, 1:00 AM)30.04 "Hg (Jun 22, 1:00 AM)
Low63 °F (Jul 1, 6:00 AM)28% (Jun 24, 3:00 PM)29.77 "Hg (Jul 3, 4:00 PM)
Average77 °F69%29.93 "Hg
* Reported Jun 18 6:00 PM — Jul 3 6:00 PM, Buenaventura, Weather by CustomWeather, © 2015

Note: Actual official high and low records may vary slightly from our data, if they occured in-between our weather recording intervals... More about our weather records

Advertising

Buenaventura weather history for previous 24 hours

 ConditionsComfort  
Time TempWeatherWind HumidityBarometerVisibility
6:00 PM
Fri, Jul 3
82 °FPartly sunny.7 mph62%29.79 "HgN/A
5:00 PM84 °FPartly sunny.12 mph58%29.77 "HgN/A
4:00 PM86 °FPartly sunny.6 mph46%29.77 "HgN/A
3:00 PM88 °FBroken clouds.No wind43%29.79 "HgN/A
2:00 PM90 °FPartly sunny.3 mph41%29.80 "HgN/A
1:00 PM86 °FPartly sunny.5 mph46%29.85 "HgN/A
12:00 PM82 °FBroken clouds.3 mph55%29.89 "HgN/A
11:00 AM81 °FOvercast.3 mph58%29.92 "HgN/A
10:00 AM75 °FOvercast.7 mph69%29.95 "HgN/A
9:00 AM75 °FOvercast.5 mph65%29.95 "HgN/A
8:00 AM73 °FPartly sunny.3 mph69%29.94 "HgN/A
7:00 AM68 °FPartly sunny.3 mph83%29.92 "HgN/A
6:00 AM63 °FOvercast.3 mph94%29.90 "HgN/A
5:00 AM64 °FPartly cloudy.3 mph94%29.88 "HgN/A
4:00 AM64 °FPassing clouds.3 mph94%29.87 "HgN/A
3:00 AM66 °FPassing clouds.3 mph88%29.97 "HgN/A
2:00 AM64 °FPassing clouds.7 mph94%29.87 "HgN/A
1:00 AM70 °FPassing clouds.6 mph83%29.88 "HgN/A
12:00 AM68 °FPassing clouds.No wind88%29.88 "HgN/A
11:00 PM
Thu, Jul 2
73 °FPassing clouds.5 mph78%29.88 "HgN/A
10:00 PM72 °FPassing clouds.6 mph83%29.88 "HgN/A
9:00 PM73 °FOvercast.9 mph78%29.88 "HgN/A
8:00 PM75 °FPassing clouds.6 mph74%29.85 "HgN/A
7:00 PM81 °FOvercast.12 mph62%29.83 "HgN/A
Weather by CustomWeather, © 2015

See weather overviewHow to use our weather pages